Temp
25 25 25 25 26 25 25 26 26 26 25 26 26 25 24 24 20 18 19 22 23 27 31 28 30 32 31 31 33 33 32 33 33 32 33 33 33 35 37 38 39 39 39 40 40 40 42 43 43 44 44 45 46 46 47 47 48 48 49 49 51 52 53 54 55 56 57 58 58 59 60 60 60 60
25 25 25 25 26 25 25 25 25 25 26 26 26 25 25 25 22 21 19 20 25 25 27 27 26 29 30 31 30 30 29 32 32 31 31 31 31 34 35 35 36 37 38 39 40 40 40 41 42 42 43 43 44 45 46 46 47 47 48 49 50 50 51 52 53 54 55 56 57 58 59 60 61 60
25 24 24 24 24 24 24 24 26 27 27 26 25 24 26 25 24 23 22 18 25 26 24 26 29 27 28 28 27 28 28 30 30 29 29 29 31 31 30 32 33 35 35 36 37 38 39 40 41 41 42 43 43 44 44 45 46 46 47 48 49 49 50 51 51 52 53 54 55 56 59 59 60 60
25 24 23 23 23 23 23 23 24 24 24 24 24 24 24 24 24 23 21 19 19 26 25 26 26 27 26 26 25 25 26 28 30 27 27 27 30 28 27 30 32 33 34 36 37 38 39 40 40 40 41 41 42 43 43 44 44 45 46 47 48 48 49 49 50 51 52 52 53 54 56 58 58 59
24 23 22 22 22 22 22 23 23 23 23 23 23 23 22 21 21 20 19 17 17 21 26 25 25 25 25 23 24 24 25 25 26 28 26 26 25 26 26 27 30 32 34 35 37 38 38 39 39 40 40 41 41 42 43 43 44 44 45 46 47 48 49 49 50 50 51 51 52 53 53 56 57 58
22 22 21 21 21 22 21 22 22 22 22 22 21 21 21 19 19 21 18 17 16 15 20 21 24 23 24 21 25 23 23 23 25 24 25 25 25 25 26 26 27 32 33 35 37 38 38 39 39 40 40 40 41 41 42 43 43 44 44 45 45 46 47 48 49 49 50 51 52 52 53 53 55 57
20 19 19 19 19 20 19 20 21 21 20 21 19 19 20 18 19 19 19 17 14 15 16 20 20 21 22 21 22 24 24 24 24 23 24 24 25 26 26 26 27 31 33 35 36 37 38 38 39 39 39 40 40 41 42 42 43 43 44 44 45 45 46 46 47 48 49 50 51 52 51 52 54 55
19 19 18 18 18 18 16 17 18 19 19 19 19 18 19 19 18 19 19 19 16 16 14 17 19 21 20 21 23 23 24 23 23 24 24 25 25 25 26 26 26 29 34 34 35 36 37 37 38 38 39 39 40 41 41 42 42 43 43 44 44 45 45 46 46 47 47 48 50 51 52 52 53 54
19 19 18 18 18 18 16 17 16 16 17 18 18 18 19 18 19 19 19 18 18 16 15 16 19 21 21 22 22 23 22 23 24 24 24 24 24 25 26 26 28 31 33 33 33 34 35 35 37 37 38 39 39 40 40 41 42 42 42 43 43 44 45 45 45 46 46 47 47 49 50 52 52 52
20 20 20 19 19 17 16 16 17 18 17 18 17 17 18 18 18 18 18 18 17 17 16 16 17 20 19 20 21 24 23 22 21 23 24 25 24 24 25 27 27 28 28 27 29 31 32 33 35 36 37 38 39 40 40 41 41 41 41 42 42 43 43 44 45 45 46 46 47 47 48 49 52 52
20 20 19 18 17 17 18 18 18 17 17 16 15 16 16 17 17 18 18 18 18 18 17 17 18 18 20 21 19 23 24 23 22 21 21 21 26 25 25 24 27 27 27 30 33 32 32 33 33 35 37 38 39 39 40 40 41 40 40 40 40 41 42 42 43 43 46 45 46 47 47 47 49 52
18 18 18 19 19 19 19 18 17 17 16 16 16 18 18 19 19 18 18 18 18 18 18 18 18 19 19 20 23 23 22 21 22 24 23 20 21 23 26 26 25 26 27 26 27 30 31 32 33 35 36 37 38 39 39 39 38 38 38 39 40 40 41 41 42 43 45 45 45 46 47 47 47 51
18 18 19 20 20 21 21 23 22 21 21 18 17 19 19 19 18 18 18 17 17 17 17 17 19 18 18 19 20 20 20 19 20 23 24 22 23 24 24 26 28 27 26 27 27 27 29 29 30 31 31 34 36 36 36 36 36 37 38 39 40 40 41 41 42 43 43 44 45 46 46 47 47 48
20 20 20 21 22 23 23 24 24 25 26 26 24 21 20 19 18 17 17 17 17 16 15 16 17 16 16 18 19 19 21 23 24 24 23 21 22 23 23 24 27 29 28 27 26 28 31 31 31 32 31 32 33 32 32 32 34 36 38 39 40 40 41 41 42 43 43 43 44 45 46 46 46 47
19 20 21 21 22 23 24 23 25 26 27 27 27 28 28 28 24 20 19 19 19 16 15 17 17 17 17 20 21 21 21 23 23 23 24 23 23 21 19 18 23 29 28 26 25 25 29 31 28 29 29 29 30 31 31 35 36 37 38 39 40 40 41 41 42 43 43 43 44 45 45 46 47 47
20 20 21 21 22 21 21 20 20 23 25 26 26 27 28 28 29 29 25 22 21 21 20 20 21 21 21 22 24 24 24 24 24 25 24 23 22 21 20 20 19 25 29 25 23 23 28 29 28 26 28 29 29 30 34 36 36 37 39 39 40 40 41 41 42 43 43 43 44 44 45 46 47 47
20 20 21 21 22 22 24 23 21 20 20 24 26 27 27 28 28 28 29 30 26 25 22 21 21 22 23 22 23 25 25 26 24 24 23 23 23 23 21 22 22 25 28 25 23 21 25 27 25 25 27 28 29 30 34 35 36 37 38 39 39 40 41 41 42 42 43 43 44 44 44 45 46 46
21 21 21 21 21 21 20 20 20 20 20 21 22 22 23 23 25 27 28 28 28 28 25 23 21 24 26 23 25 26 27 25 22 22 21 23 22 21 21 24 25 26 28 24 23 20 23 26 25 24 26 28 29 30 33 36 37 38 38 39 39 40 40 41 41 42 43 43 43 44 44 44 45 46
22 22 22 21 19 18 18 20 21 20 21 21 20 21 21 22 23 23 23 24 25 25 26 25 25 25 26 26 26 26 27 25 24 24 23 23 23 23 24 24 25 24 27 26 24 17 22 26 24 24 26 28 29 30 33 36 37 38 38 39 39 40 40 41 41 42 42 42 43 44 44 44 45 46
23 22 21 19 18 18 19 22 26 26 25 23 22 21 22 22 23 24 27 29 30 28 28 27 26 26 27 29 28 28 28 27 27 26 25 24 23 21 19 17 21 22 26 28 23 20 21 26 24 25 28 29 28 30 31 35 37 38 38 39 39 40 40 41 41 41 42 42 43 44 44 44 45 45
22 22 21 20 19 19 21 24 26 27 27 23 21 21 20 21 21 22 25 28 29 29 29 29 29 30 30 30 30 30 30 27 25 22 19 17 19 17 15 16 18 19 24 26 27 23 21 24 25 24 27 28 28 28 29 31 35 36 38 38 39 39 40 40 41 42 42 42 43 44 44 44 44 44
21 21 23 22 21 21 22 25 26 27 26 22 21 20 20 20 20 21 24 24 24 27 27 28 28 28 27 26 26 26 26 26 24 18 14 16 17 14 14 13 15 18 20 23 28 22 21 24 25 23 24 26 26 28 29 31 32 35 37 38 38 39 40 41 41 40 40 40 42 43 44 44 43 43
20 20 23 25 25 24 24 26 26 27 26 22 21 21 20 19 18 20 21 19 18 19 20 21 20 19 20 19 17 18 23 24 23 20 18 18 16 14 14 14 15 13 16 24 28 21 21 22 24 25 22 21 26 29 30 31 31 32 33 34 35 37 38 38 38 39 39 40 39 40 43 43 44 44
19 20 21 23 26 26 26 26 26 26 26 24 23 22 19 18 16 20 18 19 20 19 17 15 16 15 16 16 17 17 18 19 20 21 20 20 19 17 17 17 17 15 17 24 29 23 23 24 22 25 23 19 17 24 28 28 30 30 31 31 32 35 36 36 37 38 39 39 41 40 40 43 44 42
18 20 21 22 23 24 24 25 25 26 26 26 23 22 19 18 20 23 20 20 19 14 13 12 12 12 12 13 15 16 17 17 19 20 21 21 21 18 16 15 15 15 18 23 27 23 20 23 21 23 22 22 22 21 24 26 28 28 30 30 31 33 34 34 36 36 38 39 40 42 43 43 44 43
19 20 21 19 21 23 24 24 25 26 26 26 23 21 23 24 24 21 19 14 12 10 9 8 8 9 10 11 12 13 15 17 18 20 20 21 21 21 20 18 15 13 14 21 26 22 19 17 20 20 21 21 21 23 21 23 27 28 30 31 32 32 34 34 35 36 37 38 39 40 41 43 44 45
20 21 19 19 22 23 24 24 25 25 25 23 21 22 22 23 23 20 12 10 8 7 7 7 7 8 9 9 11 12 14 16 17 18 19 20 20 20 21 21 21 19 20 21 22 21 19 17 20 19 19 21 20 21 22 21 23 29 29 30 31 32 34 35 34 35 37 37 38 41 42 43 44 44
20 19 19 18 22 23 24 24 23 23 22 20 20 21 21 21 19 12 8 6 6 6 6 7 7 7 9 10 11 13 14 16 16 17 18 18 19 20 19 20 20 20 21 20 21 21 20 18 19 21 21 19 18 18 18 24 26 27 26 29 30 31 33 34 34 35 35 36 37 38 38 38 40 40
20 20 22 23 23 22 21 21 20 18 17 18 19 20 20 18 9 6 4 4 5 5 6 6 7 7 9 12 13 15 15 16 16 15 16 17 17 18 18 19 19 20 21 21 21 21 21 21 20 21 21 22 20 21 21 21 24 25 27 26 25 29 31 32 33 33 33 35 35 36 36 38 38 40
23 23 22 21 19 18 17 14 13 11 13 17 18 17 15 9 5 4 3 4 5 5 6 7 6 7 10 11 13 15 15 13 12 13 13 13 14 16 16 15 16 18 19 20 21 21 21 21 21 21 21 23 23 22 23 22 22 25 26 26 26 29 30 31 32 33 33 33 34 34 36 38 39 39
16 18 17 16 18 15 16 15 15 14 13 9 8 6 6 4 3 4 3 4 6 7 6 6 7 8 10 12 11 11 11 10 12 14 14 13 13 14 15 14 13 14 16 18 20 21 21 21 22 21 19 19 21 23 24 25 23 24 26 28 27 23 29 31 32 32 33 33 34 35 36 37 38 38
13 12 13 11 6 6 3 3 1 1 1 3 3 3 3 3 5 8 12 12 8 7 7 7 8 8 8 7 8 9 9 10 11 14 13 13 13 14 14 11 11 12 13 15 17 19 21 21 21 21 20 20 19 21 24 25 24 25 26 28 28 29 30 29 30 32 34 34 33 34 35 36 37 39
7 6 1 -2 -1 -2 -4 -4 -4 -3 -5 -2 -0 -1 -1 0 1 2 1 1 3 5 5 5 5 6 7 7 8 8 8 9 11 13 13 14 13 13 13 11 10 10 10 11 13 15 18 19 21 21 21 20 22 22 22 20 24 27 26 27 28 28 29 30 31 31 33 32 32 33 33 36 37 38
3 0 -2 -3 -6 -3 -4 -6 -5 -4 -4 -2 -2 -1 4 3 -0 2 2 3 3 5 5 5 6 6 6 6 7 7 8 9 11 13 15 13 13 11 11 10 10 11 11 11 12 13 15 17 18 19 20 20 21 22 22 21 22 26 28 29 29 28 30 31 32 33 33 33 32 31 32 33 36 38
-0 -3 -4 -4 -4 -5 -4 -5 -4 -3 -3 -2 -2 -2 -1 -1 1 3 2 3 4 5 5 5 6 6 6 6 7 7 8 9 11 12 13 13 12 11 10 9 9 10 10 10 11 12 14 14 14 13 14 16 16 20 27 27 24 26 28 29 30 30 30 32 32 33 34 34 33 31 32 33 34 38
-2 -4 -5 -6 -7 -6 -6 -4 -3 -3 -3 -3 -3 -3 -2 -1 1 2 2 4 5 4 4 4 5 6 7 7 8 8 9 10 11 11 11 11 11 11 10 10 10 10 10 10 10 12 13 13 13 11 9 9 10 10 15 28 32 30 28 28 30 30 31 32 32 33 33 33 33 32 31 31 33 36
-2 -5 -6 -7 -7 -7 -6 -5 -5 -5 -3 -3 -3 -3 -2 -2 0 2 4 7 5 4 4 6 6 7 7 8 8 9 10 10 10 11 11 11 11 10 9 9 10 10 9 10 11 12 13 12 12 11 9 7 7 7 11 20 26 33 32 29 30 31 31 32 32 32 33 34 33 33 32 32 33 36
-4 -5 -8 -7 -7 -7 -6 -6 -5 -4 -4 -3 -3 -2 -2 -0 1 3 5 4 3 3 4 4 6 7 7 8 8 9 10 11 12 11 11 11 9 9 9 8 9 9 9 10 11 12 13 12 11 11 10 7 6 7 9 16 22 27 33 32 30 31 32 31 31 31 32 34 33 34 34 33 33 36
-5 -5 -6 -8 -7 -8 -7 -6 -5 -5 -4 -4 -4 -4 -3 -2 -0 1 1 1 2 3 4 5 5 6 7 8 9 9 10 10 10 10 10 10 10 9 8 8 8 9 9 9 11 11 12 11 11 11 11 9 8 9 13 13 16 24 31 34 32 31 31 32 31 32 32 33 34 35 35 37 39 39
-6 -7 -8 -8 -7 -8 -7 -6 -6 -5 -5 -5 -5 -4 -2 -1 -1 -1 -1 1 2 5 5 5 5 7 7 8 9 10 11 11 11 10 10 9 10 10 9 9 9 9 9 8 8 9 10 11 11 12 12 13 14 16 16 17 19 22 22 24 28 29 31 32 32 32 32 33 34 33 33 34 33 35
-8 -9 -9 -8 -9 -8 -8 -7 -6 -6 -6 -6 -5 -1 -1 -2 -2 -2 -0 2 5 4 3 3 4 5 7 9 10 11 10 11 11 10 10 10 10 10 10 10 9 9 8 7 8 8 9 12 15 19 16 15 16 16 14 11 10 13 17 22 29 32 34 34 33 33 33 34 34 33 33 33 33 34
-10 -11 -12 -12 -11 -10 -10 -9 -8 -8 -8 -7 -6 -5 -4 -2 -2 4 4 4 2 1 2 3 5 7 8 10 11 12 11 10 9 9 9 9 9 9 9 9 8 8 7 6 7 9 12 15 15 15 14 14 12 9 7 9 10 14 19 24 29 34 36 35 35 35 36 35 34 32 33 33 34 33
-10 -12 -12 -11 -11 -11 -11 -10 -10 -10 -9 -7 -6 -5 -4 -3 -3 -2 -2 -1 0 1 2 3 6 7 9 10 11 12 12 10 9 8 9 9 9 8 7 8 8 9 9 9 10 11 12 13 14 13 13 12 11 11 8 10 12 14 17 20 25 31 35 36 36 35 36 37 37 37 37 35 34 31
-12 -13 -13 -13 -13 -13 -14 -13 -13 -12 -10 -8 -6 -5 -4 -4 -4 -3 -2 -1 -0 1 2 4 6 8 9 10 12 13 12 10 10 9 9 9 9 9 8 9 9 9 9 9 9 10 11 12 12 12 11 10 12 11 11 12 13 16 18 21 25 27 30 34 35 35 36 36 36 36 37 37 37 38
-13 -14 -14 -14 -14 -15 -15 -15 -14 -12 -11 -9 -8 -7 -5 -4 -3 -2 -2 -1 -0 1 3 4 6 8 10 11 12 11 11 13 12 9 9 9 9 9 9 9 9 8 8 9 8 8 10 10 11 12 11 11 12 12 13 14 14 16 18 21 24 28 30 32 33 33 34 34 36 36 36 36 36 36
MSLP
1022.48 1022.76 1022.96 1023.16 1023.40 1023.60 1023.76 1023.92 1024.12 1024.36 1024.52 1024.64 1024.68 1024.68 1024.76 1024.60 1024.72 1022.88 1020.88 1019.80 1020.20 1019.48 1019.72 1019.96 1019.56 1019.64 1020.20 1020.60 1020.88 1021.08 1021.36 1021.64 1021.64 1021.52 1021.40 1021.16 1020.72 1020.32 1019.88 1019.40 1018.92 1018.48 1018.00 1017.56 1017.20 1016.84 1016.52 1016.20 1016.00 1015.80 1015.60 1015.44 1015.24 1015.04 1014.76 1014.48 1014.12 1013.80 1013.52 1013.20 1012.84 1012.56 1012.20 1011.80 1011.32 1010.88 1010.48 1010.16 1009.92 1009.68 1009.44 1009.36 1009.44 1009.36
1022.36 1022.68 1022.96 1023.16 1023.36 1023.56 1023.68 1023.88 1024.12 1024.32 1024.48 1024.56 1024.56 1024.56 1024.40 1024.32 1024.40 1023.96 1023.24 1020.24 1019.64 1019.76 1019.36 1019.52 1020.04 1020.04 1020.56 1020.96 1021.24 1021.56 1021.48 1021.64 1021.68 1021.56 1021.32 1021.00 1020.72 1020.36 1019.84 1019.36 1018.92 1018.40 1017.80 1017.28 1016.92 1016.64 1016.36 1016.04 1015.76 1015.52 1015.32 1015.16 1014.92 1014.64 1014.32 1014.00 1013.76 1013.56 1013.20 1012.84 1012.52 1012.24 1011.92 1011.64 1011.28 1010.80 1010.32 1009.96 1009.68 1009.48 1009.24 1008.96 1008.88 1008.88
1022.28 1022.64 1022.96 1023.24 1023.44 1023.60 1023.76 1024.00 1024.16 1024.36 1024.48 1024.56 1024.60 1024.48 1024.32 1024.20 1023.92 1023.88 1023.48 1022.52 1018.84 1019.16 1019.64 1019.88 1020.20 1020.64 1020.80 1020.88 1021.16 1021.40 1021.40 1021.44 1021.40 1021.08 1021.00 1020.76 1020.28 1019.92 1019.60 1019.32 1018.80 1018.24 1017.80 1017.36 1016.88 1016.48 1016.04 1015.68 1015.44 1015.24 1015.04 1014.84 1014.60 1014.32 1014.04 1013.72 1013.32 1012.96 1012.84 1012.48 1012.08 1011.72 1011.48 1011.20 1010.96 1010.72 1010.44 1010.00 1009.48 1009.24 1008.92 1008.68 1008.52 1008.40
1022.24 1022.60 1022.92 1023.24 1023.48 1023.72 1023.92 1024.20 1024.40 1024.60 1024.68 1024.76 1024.80 1024.68 1024.64 1024.40 1024.12 1023.92 1023.68 1023.32 1020.12 1019.20 1019.96 1019.52 1020.52 1020.64 1021.04 1021.36 1021.32 1021.24 1021.60 1021.08 1021.28 1020.84 1020.48 1020.32 1019.84 1019.44 1019.08 1018.92 1018.64 1017.96 1017.40 1016.96 1016.44 1015.96 1015.56 1015.28 1015.08 1014.88 1014.72 1014.48 1014.16 1013.84 1013.52 1013.16 1012.80 1012.52 1012.20 1011.84 1011.44 1011.16 1010.84 1010.60 1010.40 1010.24 1010.04 1009.80 1009.40 1008.96 1008.68 1008.40 1008.24 1008.08
1022.16 1022.56 1022.92 1023.28 1023.56 1023.76 1024.04 1024.28 1024.52 1024.64 1024.76 1024.84 1024.84 1024.80 1024.76 1024.60 1024.28 1024.04 1023.92 1023.32 1021.52 1018.56 1019.84 1019.72 1020.00 1020.84 1021.08 1020.88 1021.44 1020.96 1021.16 1021.00 1020.48 1020.56 1020.16 1019.64 1019.44 1019.08 1018.60 1018.08 1017.96 1017.68 1016.96 1016.36 1016.00 1015.64 1015.36 1015.04 1014.76 1014.48 1014.16 1013.88 1013.56 1013.20 1012.80 1012.44 1012.12 1011.80 1011.52 1011.16 1010.84 1010.52 1010.20 1009.96 1009.72 1009.52 1009.40 1009.24 1009.08 1008.64 1008.40 1008.12 1007.84 1007.76
1022.12 1022.52 1022.88 1023.24 1023.52 1023.68 1023.96 1024.16 1024.44 1024.56 1024.68 1024.72 1024.84 1024.80 1024.76 1024.68 1024.40 1024.08 1024.00 1023.48 1023.12 1020.52 1018.36 1020.28 1019.44 1020.44 1021.04 1020.64 1020.80 1021.16 1020.16 1020.24 1020.08 1019.44 1019.44 1019.00 1018.68 1018.32 1017.92 1017.52 1017.12 1017.12 1016.64 1016.00 1015.56 1015.28 1014.92 1014.56 1014.28 1013.96 1013.64 1013.28 1012.92 1012.52 1012.16 1011.80 1011.52 1011.24 1010.92 1010.56 1010.28 1010.04 1009.76 1009.48 1009.24 1009.00 1008.80 1008.64 1008.52 1008.36 1007.88 1007.80 1007.56 1007.36
1021.92 1022.32 1022.64 1022.96 1023.32 1023.60 1023.88 1024.04 1024.28 1024.44 1024.60 1024.60 1024.72 1024.76 1024.60 1024.60 1024.36 1024.16 1023.96 1023.88 1023.32 1022.32 1019.92 1019.88 1020.24 1019.44 1020.64 1020.88 1020.00 1020.20 1020.12 1019.52 1019.40 1018.76 1018.08 1018.20 1017.72 1017.48 1017.32 1016.92 1016.48 1016.36 1016.20 1015.68 1015.16 1014.88 1014.52 1014.04 1013.72 1013.40 1013.04 1012.64 1012.24 1011.84 1011.52 1011.16 1010.88 1010.60 1010.32 1010.00 1009.68 1009.40 1009.16 1008.96 1008.72 1008.52 1008.28 1008.04 1007.92 1007.96 1007.68 1007.12 1007.24 1007.08
1021.56 1021.92 1022.32 1022.72 1023.08 1023.44 1023.72 1024.00 1024.24 1024.28 1024.36 1024.44 1024.52 1024.56 1024.44 1024.32 1024.24 1024.08 1023.96 1023.84 1023.72 1022.72 1021.92 1018.92 1020.92 1019.56 1020.04 1020.04 1020.20 1020.00 1019.28 1019.08 1018.40 1018.12 1017.36 1017.04 1017.04 1016.80 1016.52 1016.36 1015.96 1015.72 1015.44 1015.08 1014.64 1014.24 1013.88 1013.56 1013.20 1012.84 1012.48 1012.04 1011.64 1011.24 1010.92 1010.64 1010.36 1010.00 1009.68 1009.40 1009.08 1008.84 1008.56 1008.28 1008.00 1007.76 1007.64 1007.52 1007.40 1007.16 1007.20 1006.68 1006.36 1006.44
1021.36 1021.76 1022.08 1022.52 1022.92 1023.24 1023.64 1023.84 1024.08 1024.12 1024.16 1024.16 1024.32 1024.32 1024.24 1024.16 1024.00 1023.92 1023.76 1023.72 1023.56 1023.16 1022.24 1020.40 1019.76 1020.56 1019.76 1019.76 1019.88 1019.56 1019.12 1018.20 1017.96 1017.56 1017.16 1016.64 1016.28 1015.88 1015.60 1015.40 1015.24 1015.00 1014.68 1014.36 1014.04 1013.72 1013.44 1013.16 1012.76 1012.36 1011.92 1011.48 1011.08 1010.76 1010.44 1010.16 1009.88 1009.56 1009.24 1008.92 1008.64 1008.28 1008.00 1007.72 1007.48 1007.28 1007.00 1006.80 1006.64 1006.64 1006.44 1006.32 1005.80 1005.72
1021.24 1021.60 1021.96 1022.36 1022.68 1023.04 1023.32 1023.56 1023.68 1023.76 1023.84 1023.92 1024.08 1024.12 1024.04 1023.92 1023.84 1023.72 1023.52 1023.40 1023.36 1023.20 1022.40 1021.76 1019.88 1019.32 1020.44 1019.00 1018.84 1019.56 1018.84 1018.80 1018.12 1016.56 1016.04 1016.20 1015.96 1015.48 1014.28 1014.00 1014.44 1014.32 1013.96 1013.76 1013.44 1013.12 1012.88 1012.68 1012.24 1011.64 1011.24 1010.80 1010.44 1010.12 1009.84 1009.60 1009.28 1009.04 1008.68 1008.40 1008.20 1007.92 1007.60 1007.32 1007.00 1006.72 1006.44 1006.16 1006.00 1005.80 1005.88 1005.80 1005.48 1005.00
1021.28 1021.60 1021.96 1022.24 1022.56 1022.84 1022.96 1023.08 1023.16 1023.32 1023.48 1023.64 1023.80 1023.80 1023.84 1023.68 1023.56 1023.40 1023.24 1023.16 1023.04 1022.80 1022.36 1021.48 1020.96 1019.88 1019.00 1020.04 1018.64 1017.96 1019.28 1018.84 1018.88 1018.28 1015.64 1013.48 1014.32 1015.28 1014.96 1013.40 1013.08 1013.60 1013.44 1013.08 1013.04 1012.84 1012.16 1011.64 1011.28 1010.88 1010.44 1010.08 1009.72 1009.48 1009.24 1008.96 1008.60 1008.32 1008.20 1008.12 1007.92 1007.64 1007.36 1007.00 1006.60 1006.16 1005.60 1005.36 1005.16 1005.08 1005.00 1005.04 1004.88 1004.24
1021.24 1021.60 1021.88 1022.12 1022.32 1022.48 1022.60 1022.68 1022.88 1023.00 1023.24 1023.28 1023.40 1023.28 1023.28 1023.16 1023.16 1023.08 1022.96 1022.92 1022.80 1022.52 1022.12 1021.52 1020.80 1020.00 1019.48 1018.48 1018.68 1018.40 1018.60 1018.24 1017.68 1018.16 1017.76 1015.76 1013.16 1012.92 1013.04 1013.60 1013.68 1013.04 1012.64 1012.00 1011.88 1011.96 1011.64 1011.04 1010.56 1010.16 1009.72 1009.36 1009.08 1008.84 1008.56 1008.36 1008.24 1008.16 1008.00 1007.72 1007.36 1007.04 1006.72 1006.36 1005.92 1005.44 1004.84 1004.44 1004.28 1004.16 1004.08 1004.16 1004.16 1003.76
1021.20 1021.52 1021.76 1021.92 1022.00 1022.16 1022.24 1022.28 1022.44 1022.52 1022.60 1022.76 1022.84 1022.64 1022.64 1022.72 1022.68 1022.76 1022.68 1022.68 1022.52 1022.20 1021.92 1021.20 1020.80 1020.32 1019.48 1019.00 1018.60 1017.76 1017.76 1018.08 1017.56 1016.72 1016.76 1015.68 1014.84 1014.16 1012.52 1011.00 1012.56 1012.96 1012.52 1011.68 1011.16 1010.68 1010.92 1010.40 1009.84 1009.48 1009.00 1008.68 1008.56 1008.44 1008.40 1008.24 1008.04 1007.88 1007.60 1007.16 1006.76 1006.36 1006.00 1005.60 1005.16 1004.72 1004.28 1003.76 1003.36 1003.24 1003.20 1003.20 1003.24 1003.12
1021.00 1021.24 1021.40 1021.52 1021.60 1021.72 1021.80 1021.84 1021.80 1021.76 1021.68 1021.60 1021.72 1021.84 1022.04 1022.24 1022.44 1022.44 1022.44 1022.32 1022.20 1021.96 1021.64 1021.20 1020.88 1020.32 1019.40 1018.80 1018.52 1017.96 1017.12 1016.96 1016.40 1016.00 1016.00 1015.20 1014.32 1014.04 1013.00 1011.36 1010.84 1012.04 1012.04 1011.16 1010.56 1009.88 1009.80 1009.80 1009.12 1008.92 1008.60 1008.32 1008.52 1008.28 1008.12 1007.88 1007.68 1007.24 1006.80 1006.36 1005.96 1005.64 1005.28 1004.88 1004.40 1003.92 1003.44 1003.12 1002.64 1002.32 1002.28 1002.24 1002.32 1002.32
1020.48 1020.68 1020.84 1021.04 1021.12 1021.16 1021.20 1021.16 1021.16 1021.12 1021.12 1021.12 1021.08 1021.04 1021.00 1021.08 1021.28 1021.64 1021.68 1021.48 1021.44 1021.52 1021.16 1020.64 1020.40 1019.84 1018.92 1018.08 1017.96 1017.52 1016.84 1016.40 1015.88 1015.64 1015.32 1014.80 1014.16 1013.76 1013.44 1011.60 1009.32 1010.36 1011.92 1011.24 1010.00 1009.28 1009.04 1009.64 1008.84 1008.08 1008.00 1007.76 1007.88 1007.76 1007.52 1007.24 1006.84 1006.40 1006.00 1005.56 1005.16 1004.80 1004.44 1004.00 1003.56 1003.12 1002.68 1002.20 1001.80 1001.52 1001.32 1001.28 1001.28 1001.32
1019.80 1020.08 1020.28 1020.44 1020.60 1020.68 1020.68 1020.76 1020.84 1020.84 1020.84 1020.80 1020.80 1020.76 1020.76 1020.76 1020.76 1020.76 1020.84 1020.80 1020.60 1020.40 1020.00 1019.48 1019.12 1019.00 1018.20 1017.28 1017.12 1016.72 1016.56 1015.96 1015.36 1014.84 1014.84 1014.64 1014.44 1013.76 1013.20 1012.24 1011.04 1009.40 1011.28 1011.24 1010.00 1008.76 1008.04 1008.72 1008.56 1007.52 1006.72 1006.84 1006.88 1006.80 1006.60 1006.20 1005.92 1005.56 1005.12 1004.72 1004.36 1004.00 1003.60 1003.12 1002.68 1002.28 1001.80 1001.32 1000.84 1000.56 1000.40 1000.28 1000.32 1000.32
1019.36 1019.60 1019.80 1020.00 1020.04 1020.12 1020.12 1020.20 1020.32 1020.48 1020.56 1020.48 1020.44 1020.40 1020.36 1020.32 1020.32 1020.32 1020.24 1020.16 1020.08 1019.96 1019.76 1019.32 1018.56 1018.64 1018.24 1017.36 1016.72 1016.80 1016.60 1016.44 1015.44 1014.76 1014.16 1013.92 1013.88 1013.60 1012.88 1011.48 1010.64 1009.36 1010.84 1011.20 1010.28 1008.72 1007.04 1007.80 1008.08 1007.16 1005.48 1006.04 1006.20 1005.84 1005.52 1005.32 1005.04 1004.64 1004.28 1003.92 1003.52 1003.04 1002.64 1002.28 1001.92 1001.40 1000.96 1000.60 1000.20 999.80 999.56 999.32 999.32 999.40
1019.16 1019.32 1019.48 1019.60 1019.68 1019.76 1019.92 1020.04 1020.16 1020.24 1020.24 1020.28 1020.32 1020.28 1020.16 1020.04 1019.96 1019.88 1019.76 1019.80 1019.76 1019.72 1019.40 1018.96 1018.24 1017.64 1018.08 1017.28 1016.48 1016.20 1016.44 1016.20 1015.64 1014.96 1013.96 1013.52 1013.32 1012.80 1011.92 1010.84 1010.24 1009.16 1010.12 1010.96 1010.36 1008.52 1006.32 1006.40 1007.24 1005.96 1004.76 1005.12 1005.20 1004.84 1004.40 1004.16 1003.96 1003.76 1003.36 1003.00 1002.64 1002.28 1001.92 1001.52 1001.12 1000.60 1000.12 999.76 999.52 999.16 998.84 998.68 998.56 998.44
1018.96 1019.12 1019.20 1019.28 1019.44 1019.56 1019.76 1019.84 1019.84 1019.88 1019.84 1019.84 1019.80 1019.80 1019.72 1019.64 1019.52 1019.48 1019.48 1019.40 1019.28 1019.04 1018.72 1018.32 1017.80 1017.28 1017.32 1017.12 1016.80 1016.32 1016.12 1015.88 1015.44 1014.92 1013.92 1013.20 1012.52 1011.92 1010.88 1010.16 1009.32 1008.68 1009.04 1009.84 1010.04 1008.52 1006.08 1005.08 1005.80 1004.60 1004.56 1004.28 1003.88 1003.52 1003.24 1003.20 1003.04 1002.80 1002.56 1002.24 1001.84 1001.40 1001.04 1000.68 1000.32 999.92 999.60 999.08 998.76 998.48 998.16 998.00 997.80 997.68
1018.56 1018.84 1019.00 1019.08 1019.12 1019.24 1019.36 1019.40 1019.24 1019.12 1019.04 1019.08 1019.12 1019.12 1019.08 1019.08 1019.04 1018.88 1018.68 1018.56 1018.48 1018.32 1018.12 1017.80 1017.44 1017.04 1016.80 1016.56 1016.24 1015.92 1015.52 1015.04 1014.64 1014.24 1013.56 1013.00 1012.64 1012.20 1011.12 1010.04 1008.56 1008.04 1007.80 1009.04 1009.04 1008.12 1006.08 1003.96 1004.72 1003.80 1003.88 1003.72 1002.92 1002.08 1001.88 1001.88 1002.00 1001.92 1001.76 1001.36 1000.96 1000.52 1000.20 999.88 999.52 999.16 998.76 998.36 998.00 997.64 997.56 997.24 997.08 996.92
1018.24 1018.40 1018.60 1018.68 1018.80 1018.84 1018.88 1018.80 1018.72 1018.60 1018.56 1018.60 1018.72 1018.80 1018.80 1018.72 1018.56 1018.24 1018.12 1018.08 1018.00 1017.92 1017.84 1017.64 1017.28 1016.84 1016.36 1015.96 1015.68 1015.52 1015.40 1015.20 1015.00 1014.64 1013.96 1012.96 1013.04 1012.72 1011.56 1010.16 1009.40 1007.72 1007.68 1008.08 1008.12 1007.40 1005.64 1003.28 1004.00 1003.52 1003.08 1002.96 1002.28 1001.20 1000.88 1001.00 1000.92 1000.88 1000.72 1000.40 1000.08 999.76 999.32 999.04 998.68 998.36 998.00 997.68 997.36 997.00 996.56 996.48 996.40 996.28
1017.88 1018.08 1018.12 1018.24 1018.36 1018.40 1018.40 1018.28 1018.16 1018.16 1018.20 1018.36 1018.40 1018.48 1018.36 1018.16 1018.04 1017.84 1017.76 1017.72 1017.80 1017.88 1017.60 1017.24 1016.88 1016.64 1016.48 1016.24 1016.04 1015.88 1015.80 1015.48 1015.36 1015.24 1014.28 1013.16 1013.28 1012.44 1011.76 1010.72 1009.52 1008.08 1007.32 1007.68 1007.96 1007.16 1004.88 1004.08 1003.64 1003.56 1002.44 1002.08 1001.00 1000.72 1000.28 1000.04 999.80 999.52 999.48 999.32 999.04 998.72 998.40 998.12 998.00 997.80 997.60 997.28 996.84 996.44 996.16 996.00 995.92 995.72
1017.68 1017.84 1017.80 1017.72 1017.76 1017.80 1017.84 1017.76 1017.76 1017.72 1017.80 1017.96 1018.00 1017.92 1017.84 1017.84 1017.80 1017.68 1017.76 1017.80 1017.64 1017.36 1017.08 1016.96 1017.08 1016.84 1016.68 1016.60 1016.40 1015.96 1015.56 1015.16 1014.88 1014.60 1014.00 1013.44 1013.16 1012.20 1011.20 1010.52 1009.56 1008.40 1005.92 1006.72 1007.08 1006.52 1004.36 1004.64 1002.76 1003.48 1002.56 1001.20 999.28 999.72 999.56 999.32 998.96 998.76 998.64 998.44 998.32 998.16 998.04 997.80 997.60 997.36 996.92 996.56 996.24 996.00 995.44 995.32 995.32 995.04
1017.28 1017.44 1017.52 1017.44 1017.40 1017.44 1017.56 1017.60 1017.56 1017.56 1017.48 1017.48 1017.44 1017.48 1017.64 1017.64 1017.68 1017.72 1017.68 1017.40 1017.08 1016.92 1017.28 1017.24 1017.00 1016.80 1016.56 1016.44 1016.08 1015.56 1015.00 1014.60 1014.28 1013.84 1013.40 1012.96 1012.52 1011.76 1010.88 1010.00 1009.36 1008.12 1005.92 1006.04 1006.80 1006.00 1004.08 1003.96 1002.56 1002.52 1003.08 1002.52 999.84 998.16 999.16 998.72 998.68 998.48 998.48 998.36 998.12 997.60 997.52 997.20 996.88 996.44 996.20 995.84 995.44 995.16 995.08 994.76 994.64 994.52
1016.96 1016.96 1016.96 1017.20 1017.40 1017.56 1017.60 1017.56 1017.40 1017.28 1017.12 1017.00 1017.04 1017.24 1017.48 1017.56 1017.40 1017.16 1016.96 1016.84 1017.16 1017.44 1017.36 1017.24 1017.00 1016.64 1016.32 1016.04 1015.68 1015.12 1014.64 1014.08 1013.60 1013.08 1012.64 1012.32 1012.00 1011.64 1011.08 1010.32 1009.44 1008.20 1006.40 1006.48 1007.00 1006.32 1004.60 1003.60 1002.40 1001.96 1001.76 1001.68 1000.40 999.24 997.48 998.00 997.52 997.72 997.60 997.76 997.48 996.80 996.72 996.36 996.12 995.64 995.32 995.04 994.68 994.36 994.08 993.92 993.76 993.80
1016.44 1016.48 1016.68 1017.08 1017.32 1017.44 1017.52 1017.44 1017.28 1017.00 1016.84 1016.80 1016.88 1017.12 1017.20 1017.12 1016.96 1016.80 1016.88 1017.28 1017.52 1017.56 1017.44 1017.20 1016.80 1016.36 1015.88 1015.44 1015.00 1014.56 1014.00 1013.48 1012.96 1012.48 1012.08 1011.80 1011.52 1011.20 1010.76 1010.20 1009.32 1008.04 1005.68 1006.04 1007.00 1006.68 1005.96 1003.92 1002.88 1002.56 1001.20 1001.04 999.64 999.32 998.12 996.64 996.28 996.44 996.64 996.52 996.40 995.88 995.80 995.48 995.16 994.84 994.56 994.28 993.92 993.64 993.40 993.12 992.92 992.76
1015.96 1016.08 1016.52 1016.88 1017.08 1017.12 1017.20 1017.24 1017.04 1016.96 1016.84 1016.88 1017.00 1017.04 1017.00 1016.88 1016.72 1016.76 1017.32 1017.52 1017.64 1017.60 1017.36 1016.96 1016.44 1015.88 1015.52 1015.00 1014.40 1013.88 1013.24 1012.76 1012.48 1012.12 1011.68 1011.32 1010.96 1010.40 1009.84 1009.32 1008.68 1007.56 1005.88 1005.48 1006.04 1006.24 1005.92 1003.92 1002.32 1002.80 1001.32 1000.64 1000.00 998.36 997.72 996.60 995.28 995.64 995.64 995.28 995.28 995.04 994.84 994.84 994.32 993.96 993.64 993.44 993.12 992.84 992.60 992.32 992.12 992.00
1015.56 1015.96 1016.28 1016.56 1016.56 1016.60 1016.64 1016.80 1017.00 1017.04 1017.08 1017.16 1017.08 1016.96 1016.76 1016.64 1016.76 1017.28 1017.56 1017.76 1017.68 1017.48 1017.04 1016.56 1015.96 1015.48 1015.04 1014.64 1013.92 1013.32 1012.76 1012.24 1011.84 1011.40 1010.88 1010.40 1009.92 1009.36 1008.56 1007.92 1007.32 1006.68 1005.84 1005.16 1004.92 1004.92 1004.68 1003.44 1001.64 1001.32 1001.44 1000.60 999.68 998.52 996.68 995.36 995.24 995.08 994.96 994.20 994.36 994.12 993.96 994.00 993.60 993.28 993.00 992.88 992.68 992.32 992.20 991.80 991.52 991.44
1015.28 1015.72 1015.88 1015.88 1015.88 1016.04 1016.36 1016.64 1016.96 1017.28 1017.44 1017.36 1017.12 1016.80 1016.64 1016.72 1017.24 1017.56 1017.76 1017.72 1017.56 1017.20 1016.64 1016.08 1015.44 1014.92 1014.44 1014.00 1013.40 1012.84 1012.32 1011.72 1011.20 1010.64 1009.84 1009.40 1008.88 1008.36 1007.52 1006.60 1005.88 1005.40 1004.92 1004.40 1004.08 1003.80 1003.40 1002.40 1001.00 1000.20 999.96 999.24 998.56 996.96 996.44 994.88 994.60 994.16 994.08 994.04 993.32 992.68 992.96 992.96 992.80 992.44 992.20 992.12 991.92 991.64 991.40 991.24 990.88 990.72
1014.92 1015.08 1015.28 1015.56 1015.80 1016.04 1016.32 1016.72 1017.16 1017.44 1017.48 1017.24 1017.00 1016.88 1016.84 1017.16 1017.44 1017.60 1017.64 1017.44 1017.20 1016.72 1016.04 1015.52 1015.08 1014.40 1013.80 1013.24 1012.76 1012.32 1011.88 1011.32 1010.76 1010.16 1009.24 1008.36 1007.52 1007.24 1006.44 1005.44 1004.08 1004.08 1003.80 1003.64 1003.32 1002.92 1002.44 1001.60 1000.64 999.76 998.72 997.48 996.80 995.80 994.76 994.56 993.56 992.92 993.28 993.24 992.12 991.92 991.88 992.00 991.80 991.56 991.44 991.20 991.08 990.96 990.64 990.60 990.28 990.16
1014.96 1015.24 1015.48 1015.56 1015.76 1016.08 1016.32 1016.52 1016.84 1017.16 1017.40 1017.60 1017.60 1017.44 1017.36 1017.36 1017.36 1017.36 1017.36 1017.16 1016.64 1016.08 1015.68 1015.16 1014.56 1013.92 1013.36 1012.76 1012.32 1011.84 1011.32 1010.76 1010.04 1009.60 1008.84 1007.92 1006.84 1006.40 1005.64 1004.92 1003.40 1002.56 1002.28 1002.52 1002.20 1002.08 1001.48 1000.68 999.96 999.36 998.44 997.08 996.32 995.08 994.04 993.80 992.56 991.88 991.92 991.88 991.68 991.52 990.12 990.68 990.60 990.48 990.28 990.16 990.04 989.96 989.72 989.56 989.32 989.12
1015.16 1015.60 1015.88 1016.24 1016.56 1016.68 1016.80 1017.04 1017.40 1017.68 1017.84 1017.80 1017.64 1017.52 1017.36 1017.24 1017.08 1016.88 1016.60 1016.36 1016.24 1015.88 1015.44 1014.84 1014.16 1013.56 1013.04 1012.64 1012.08 1011.40 1010.84 1010.20 1009.52 1008.92 1008.28 1007.52 1006.36 1005.64 1005.36 1004.20 1002.96 1002.12 1001.04 1000.96 1001.00 1000.76 1000.68 999.92 999.32 998.56 997.88 996.80 995.68 994.16 993.92 993.04 991.80 991.08 990.84 990.64 990.44 989.76 989.60 989.80 989.72 989.48 989.40 989.44 989.24 988.80 988.56 988.40 988.16 987.88
1015.56 1015.96 1016.32 1016.40 1016.60 1016.72 1016.88 1017.28 1017.52 1017.64 1017.64 1017.64 1017.60 1017.48 1017.28 1017.00 1016.80 1016.72 1016.68 1016.48 1016.04 1015.56 1015.12 1014.56 1013.96 1013.32 1012.80 1012.16 1011.60 1011.08 1010.40 1009.60 1008.92 1008.28 1007.60 1006.68 1006.28 1005.00 1004.84 1004.08 1002.84 1001.96 1000.80 999.52 999.60 999.36 999.28 998.76 998.44 997.80 996.96 996.16 995.28 994.32 993.44 992.08 990.40 990.04 989.76 989.32 989.40 988.72 988.28 988.48 988.56 988.40 988.60 988.88 988.44 988.04 987.56 987.28 987.12 986.88
1015.28 1015.76 1015.88 1016.24 1016.36 1016.76 1017.08 1017.20 1017.32 1017.36 1017.44 1017.48 1017.40 1017.16 1016.72 1016.52 1016.60 1016.44 1016.20 1015.96 1015.56 1015.16 1014.80 1014.32 1013.84 1013.16 1012.48 1011.72 1011.12 1010.68 1010.00 1008.92 1008.12 1007.52 1007.08 1006.08 1005.56 1005.00 1004.00 1003.20 1002.12 1001.52 1000.76 999.52 998.80 998.48 998.04 997.64 997.32 996.56 995.96 995.00 994.16 993.44 992.68 991.52 989.76 989.08 988.44 988.20 988.12 987.60 987.00 987.24 987.32 987.32 987.48 987.48 987.48 987.16 986.72 986.20 985.84 985.76
1014.80 1015.36 1015.40 1015.96 1016.76 1016.96 1017.24 1017.36 1017.24 1017.28 1017.36 1017.40 1017.20 1016.80 1016.52 1016.36 1016.28 1016.12 1015.96 1015.60 1015.24 1014.92 1014.52 1014.08 1013.60 1013.00 1012.32 1011.56 1010.80 1010.24 1009.36 1008.44 1007.32 1006.52 1006.00 1005.68 1005.00 1004.52 1003.72 1002.76 1001.48 1000.72 1000.12 999.04 998.28 997.88 997.60 996.80 996.60 995.68 994.60 993.92 992.76 990.68 990.36 989.72 989.00 987.96 987.56 986.96 986.68 986.44 986.00 986.04 986.20 986.20 986.16 986.20 986.36 986.16 985.64 985.20 984.72 984.44
1014.92 1015.20 1015.28 1015.84 1016.48 1016.96 1017.16 1017.20 1017.28 1017.32 1017.36 1017.20 1017.00 1016.72 1016.48 1016.20 1016.00 1015.84 1015.56 1015.20 1014.96 1014.64 1014.28 1013.80 1013.20 1012.52 1011.84 1011.16 1010.40 1009.68 1008.80 1007.84 1006.84 1006.00 1005.20 1004.76 1004.32 1003.56 1002.88 1002.20 1001.28 1000.04 999.40 998.72 997.84 997.16 996.96 996.16 996.24 995.64 994.64 993.36 992.80 990.88 988.56 987.84 987.48 986.64 986.52 985.64 985.48 985.24 984.96 985.00 985.04 985.08 985.08 985.04 985.04 985.12 984.80 984.16 983.64 983.20
1015.00 1015.68 1015.76 1015.92 1016.52 1016.88 1017.04 1017.16 1017.24 1017.24 1017.16 1016.92 1016.64 1016.44 1016.28 1016.08 1015.72 1015.44 1015.12 1014.88 1014.68 1014.40 1014.00 1013.36 1012.64 1011.92 1011.28 1010.60 1009.80 1008.92 1008.12 1007.36 1006.36 1005.36 1004.72 1004.04 1003.60 1003.08 1002.24 1001.00 1000.48 999.64 998.56 997.76 997.40 996.56 996.36 995.68 995.44 995.24 994.52 993.44 992.48 991.00 988.64 987.64 986.60 985.92 985.16 984.64 984.24 984.08 983.92 983.92 983.96 983.84 983.76 983.88 983.88 983.88 983.60 983.32 982.68 982.08
1014.48 1015.40 1015.60 1016.04 1016.36 1016.68 1016.88 1017.00 1017.00 1016.96 1016.76 1016.48 1016.24 1016.04 1015.92 1015.72 1015.44 1015.16 1014.88 1014.72 1014.44 1014.08 1013.52 1012.96 1012.20 1011.44 1010.84 1010.20 1009.36 1008.28 1007.32 1006.60 1005.88 1005.04 1004.24 1003.68 1003.00 1002.08 1001.60 1000.64 999.36 998.76 997.88 996.88 996.56 995.96 995.72 995.12 994.72 994.40 994.12 993.16 991.96 990.52 989.20 987.28 986.32 984.60 984.28 983.96 983.52 983.04 982.96 982.88 982.76 982.52 982.36 982.52 982.64 982.52 982.64 982.52 981.84 981.24
1014.56 1015.00 1015.24 1015.64 1016.08 1016.48 1016.72 1016.76 1016.76 1016.56 1016.28 1016.08 1015.92 1015.76 1015.60 1015.40 1015.20 1015.00 1014.80 1014.60 1014.20 1013.64 1012.96 1012.20 1011.64 1011.12 1010.44 1009.56 1008.68 1007.88 1006.96 1006.00 1005.08 1004.36 1003.76 1003.08 1002.64 1001.88 1000.76 999.96 998.84 997.64 997.00 995.92 995.36 995.08 994.80 994.36 993.96 993.56 993.24 992.52 991.40 990.20 989.60 988.44 986.20 984.48 983.60 983.16 982.84 982.32 981.80 981.76 981.52 981.36 981.28 981.32 981.32 981.40 981.44 981.08 980.84 980.60
1014.92 1015.20 1015.48 1015.80 1016.12 1016.44 1016.64 1016.60 1016.48 1016.20 1015.92 1015.72 1015.56 1015.40 1015.28 1015.08 1014.96 1014.92 1014.68 1014.24 1013.68 1012.92 1012.32 1011.84 1011.20 1010.48 1009.72 1008.88 1008.00 1007.08 1006.24 1005.60 1004.88 1004.08 1003.32 1002.56 1001.80 1001.16 1000.36 999.40 998.48 997.44 996.16 995.32 994.72 993.96 994.00 993.40 993.08 992.64 992.12 991.32 990.48 989.96 989.28 988.00 986.32 985.04 984.08 982.80 982.64 982.68 981.76 981.24 980.64 980.40 980.24 980.12 980.28 980.52 980.52 980.56 980.56 980.00
1014.92 1015.04 1015.40 1015.80 1016.20 1016.44 1016.40 1016.32 1016.12 1015.88 1015.60 1015.40 1015.20 1014.96 1014.84 1014.92 1014.84 1014.64 1014.32 1013.60 1012.80 1012.32 1012.00 1011.44 1010.84 1010.04 1009.08 1008.08 1007.32 1006.64 1005.68 1004.72 1004.16 1003.64 1002.88 1001.92 1001.12 1000.48 999.64 998.88 997.76 997.08 996.12 994.44 994.04 993.28 992.92 992.48 991.88 991.52 990.96 990.24 989.68 989.40 988.52 987.48 986.24 984.80 983.92 982.00 981.00 981.00 980.80 980.48 980.00 979.68 979.24 979.20 979.52 979.60 979.56 979.48 979.44 979.28
1014.60 1014.64 1015.20 1015.88 1016.12 1016.16 1016.24 1016.12 1015.84 1015.52 1015.20 1015.00 1014.88 1014.84 1014.80 1014.72 1014.56 1013.96 1013.36 1013.00 1012.76 1012.32 1011.68 1010.96 1010.16 1009.20 1008.24 1007.40 1006.72 1005.96 1005.20 1004.44 1003.76 1003.00 1002.32 1001.56 1000.40 999.32 998.80 998.40 997.48 996.24 995.60 994.24 993.24 992.32 991.56 991.44 990.84 990.36 989.76 989.32 988.80 988.52 987.20 986.28 985.24 983.92 982.40 981.04 979.92 979.32 979.08 978.80 978.64 978.56 978.44 978.56 978.76 978.72 978.64 978.60 978.72 978.52
1014.48 1014.68 1015.08 1015.60 1016.04 1016.16 1016.12 1015.84 1015.48 1015.16 1014.92 1014.80 1014.80 1014.80 1014.80 1014.56 1014.20 1013.80 1013.44 1012.96 1012.36 1011.80 1011.20 1010.40 1009.52 1008.60 1007.72 1006.92 1006.20 1005.44 1004.72 1003.96 1003.40 1002.68 1001.84 1001.00 1000.24 999.24 998.12 997.36 996.84 995.92 995.04 993.56 992.40 991.72 990.80 990.24 989.88 989.32 988.60 988.20 987.44 987.16 986.12 985.20 984.56 983.64 982.40 981.16 979.68 978.60 977.92 977.64 977.44 977.32 977.32 977.32 977.36 977.20 977.24 977.24 977.56 977.40
1014.48 1014.80 1015.20 1015.60 1015.84 1015.84 1015.76 1015.44 1015.12 1014.96 1014.84 1014.80 1014.80 1014.76 1014.60 1014.32 1013.92 1013.48 1013.12 1012.56 1011.96 1011.36 1010.64 1009.88 1008.92 1008.04 1007.24 1006.44 1005.56 1004.76 1004.28 1003.76 1002.96 1002.20 1001.32 1000.48 999.68 998.92 997.92 996.80 995.92 995.12 994.20 993.12 991.60 990.68 990.20 989.48 989.00 988.56 987.72 986.80 986.40 985.96 985.00 984.32 983.32 982.40 981.44 980.16 979.08 978.40 977.60 977.04 976.72 976.48 976.32 976.16 976.08 976.12 976.12 976.28 976.28 976.00
1014.52 1014.80 1015.12 1015.40 1015.56 1015.56 1015.36 1015.12 1014.88 1014.72 1014.76 1014.84 1014.80 1014.60 1014.28 1014.00 1013.68 1013.24 1012.76 1012.20 1011.60 1010.92 1010.20 1009.32 1008.32 1007.48 1006.72 1005.96 1005.08 1004.20 1003.60 1003.08 1002.60 1001.84 1001.00 1000.00 999.08 998.20 997.32 996.48 995.40 994.32 993.64 992.80 991.64 989.92 989.28 988.64 987.92 987.52 986.60 985.52 985.04 984.60 983.88 983.32 982.36 981.56 980.52 979.52 978.16 977.24 976.72 976.44 976.20 975.72 975.48 975.04 974.80 975.04 975.12 975.32 975.40 975.36
Wind_Speed
4 3 2 2 1 1 1 0 1 2 2 4 4 4 4 6 8 12 9 7 2 1 4 2 2 6 7 8 8 10 7 12 18 14 12 12 12 20 27 29 29 30 31 31 30 30 30 30 31 31 31 31 31 32 32 31 31 30 31 31 31 32 32 31 32 31 31 32 31 31 31 29 27 26
4 3 3 2 2 1 1 1 1 1 2 3 4 5 5 5 6 7 9 12 5 5 2 3 1 5 7 6 6 6 10 15 17 11 11 11 11 24 29 30 30 30 30 30 30 31 32 32 32 31 31 31 31 32 31 33 33 32 33 34 33 33 33 32 32 34 33 33 33 33 31 30 28 27
4 3 2 2 2 1 1 2 1 0 0 2 1 3 2 2 3 5 8 12 2 6 5 2 2 6 7 8 9 9 10 12 15 12 11 12 21 28 21 27 29 29 30 30 31 31 32 32 32 32 32 32 32 33 33 33 34 35 34 34 34 34 34 34 33 33 33 34 35 34 32 31 30 28
5 4 3 3 3 3 3 2 2 1 0 0 2 2 3 3 3 3 7 10 18 2 7 9 0 4 6 7 12 11 8 12 18 13 12 14 21 15 14 21 26 28 29 28 28 28 29 29 30 31 31 33 34 34 34 35 35 34 34 33 33 33 33 34 34 34 34 34 36 36 33 32 32 30
5 4 4 3 3 3 2 2 2 1 1 1 2 2 2 3 2 2 5 10 14 16 3 9 5 3 9 11 5 14 11 12 12 11 11 12 10 11 10 13 21 26 28 29 29 29 29 30 30 31 31 32 33 34 34 33 33 32 32 32 31 31 31 32 33 33 34 34 35 37 35 32 32 33
5 5 4 3 4 3 3 3 2 2 2 2 3 3 2 3 3 2 3 6 9 18 15 8 12 6 4 13 7 10 16 11 12 13 10 9 9 9 10 10 12 24 27 29 29 29 30 29 30 32 32 33 34 33 33 32 32 32 31 31 31 31 32 32 32 32 32 32 33 35 37 34 34 34
6 5 5 5 4 4 3 3 3 3 3 3 3 4 3 3 3 3 4 5 9 12 16 11 13 11 7 10 15 12 11 13 11 14 11 9 10 9 10 12 10 20 27 29 31 31 31 31 32 33 33 32 32 32 32 32 31 31 31 31 30 30 30 31 32 33 34 34 35 36 37 38 37 37
7 7 6 5 5 4 4 4 4 3 4 3 3 4 4 3 4 4 4 6 8 10 13 16 9 15 12 9 9 10 12 10 12 10 12 12 11 11 11 11 13 16 27 30 30 31 31 32 32 32 32 32 31 32 31 31 31 31 30 29 29 30 30 30 31 32 35 35 35 37 34 37 37 35
7 7 6 5 6 5 5 4 5 4 5 4 4 4 4 4 4 4 5 6 7 10 14 16 13 10 14 9 10 10 12 14 12 11 12 12 13 13 13 10 10 19 26 27 29 30 30 31 33 33 33 33 32 31 31 31 31 30 30 30 30 30 30 30 32 33 36 36 37 36 37 38 41 40
6 6 6 6 6 6 6 6 6 6 7 6 5 6 5 5 5 6 6 6 7 9 13 12 17 14 10 16 12 9 13 11 15 18 15 11 10 12 16 13 8 8 9 9 12 20 24 28 33 33 31 31 31 30 29 30 30 31 31 28 29 29 30 31 31 32 33 38 39 38 36 37 41 42
5 5 5 5 6 7 7 7 7 6 6 5 7 7 6 6 6 6 6 7 9 10 12 14 12 14 12 10 19 14 8 13 11 15 22 21 9 7 15 19 12 7 10 16 23 23 26 29 26 28 31 31 30 30 29 30 31 28 28 30 31 31 31 32 33 33 36 33 39 40 39 34 38 41
4 5 5 6 7 8 7 6 6 6 6 5 7 7 6 6 7 7 7 9 10 12 13 14 14 12 13 12 11 13 12 15 13 9 12 22 25 20 16 13 11 11 14 13 11 14 19 19 24 27 28 29 29 29 27 25 25 29 31 31 31 31 31 32 33 34 37 35 36 40 39 40 39 40
5 5 5 7 7 8 10 13 11 10 9 6 6 7 6 6 7 8 8 9 9 10 11 14 14 16 16 15 13 15 9 12 13 15 13 16 21 20 18 20 11 5 11 13 14 11 8 11 11 11 11 12 15 15 19 20 26 30 30 30 30 31 32 33 34 34 36 37 35 38 41 39 37 34
7 7 6 7 11 13 13 14 14 14 14 14 9 6 7 7 7 8 8 8 8 8 8 11 11 13 14 16 14 15 12 14 16 18 16 15 14 15 20 20 15 8 10 14 13 12 6 8 10 8 9 8 10 12 13 13 20 26 32 32 32 33 34 34 35 35 35 34 35 36 40 37 37 36
8 8 8 8 10 12 13 11 15 13 14 13 14 15 16 13 8 6 8 9 9 7 10 10 11 11 13 14 9 11 11 11 11 14 13 18 14 19 17 24 21 10 4 12 14 13 11 9 15 14 13 14 12 13 15 27 32 34 32 33 33 33 34 34 35 35 35 33 32 34 38 36 36 36
8 8 8 8 8 8 8 6 6 9 12 13 13 14 15 16 18 18 13 12 11 10 11 13 12 15 18 21 16 17 16 19 20 18 21 17 21 18 22 18 21 17 7 13 15 13 14 6 12 14 15 12 11 13 24 33 33 32 32 33 33 34 34 34 34 36 37 36 34 33 36 37 34 32
8 8 8 8 8 7 13 9 6 6 6 10 14 15 16 17 18 19 21 22 17 13 14 15 17 14 17 18 21 14 18 16 21 22 19 20 17 21 18 25 19 21 8 9 14 18 17 12 11 16 18 10 10 15 23 32 32 33 32 32 33 34 33 34 35 36 36 36 36 33 33 37 35 33
8 9 8 8 8 5 5 4 6 6 7 7 8 9 10 10 14 18 22 22 24 22 17 17 19 20 14 20 16 22 17 21 18 18 20 19 19 18 22 22 23 18 10 8 15 17 21 13 9 16 15 11 12 13 21 30 31 32 33 33 34 34 35 35 35 34 36 36 35 33 30 29 31 30
9 9 9 7 5 4 5 6 8 7 8 8 8 9 9 9 9 8 9 11 12 14 15 18 19 20 16 15 19 15 18 14 16 15 20 21 19 21 20 18 18 17 10 9 12 17 17 17 12 17 12 14 15 14 21 31 33 33 32 32 33 35 35 34 34 35 36 38 36 35 29 28 28 29
9 8 6 5 5 6 6 10 14 11 8 7 7 7 7 7 9 11 14 19 19 16 14 14 15 16 20 25 23 22 20 18 15 15 14 14 15 15 16 16 19 18 8 8 10 13 17 18 12 15 10 11 14 16 13 22 30 31 32 34 34 32 33 35 35 35 35 35 36 34 29 29 28 28
7 6 6 6 6 7 7 11 12 12 11 6 6 7 8 9 11 11 8 14 21 23 25 28 30 31 32 31 30 29 32 26 22 16 16 17 12 16 18 19 19 20 13 7 9 11 16 17 13 13 12 11 13 15 12 11 23 33 34 32 32 34 35 34 33 32 32 35 37 37 33 30 30 28
6 8 14 11 8 8 8 11 11 11 10 6 6 8 11 11 9 8 9 9 9 19 26 28 28 24 23 26 30 31 31 31 25 13 16 15 14 17 16 18 18 20 19 12 9 13 18 17 15 12 14 13 14 15 14 14 15 23 24 31 35 34 30 27 27 29 33 36 36 39 37 32 24 18
6 7 10 13 11 9 8 11 11 12 9 5 7 8 8 9 10 9 7 9 12 12 10 9 9 12 15 15 14 18 28 28 24 17 16 14 11 16 15 15 16 16 18 3 9 13 14 11 14 7 12 13 13 9 11 13 13 11 9 8 11 20 29 34 35 35 35 35 35 36 32 28 23 13
6 7 7 9 11 11 10 10 11 10 12 8 6 6 6 6 7 6 9 11 11 8 7 9 10 12 13 13 14 15 15 15 15 15 15 14 13 13 14 14 14 14 14 3 7 13 14 11 18 11 12 15 18 9 6 11 9 10 11 13 16 23 31 32 28 31 32 31 32 34 37 33 25 13
6 6 7 5 7 10 10 10 11 11 12 12 8 6 5 7 11 13 9 8 11 8 10 10 11 11 10 10 10 11 13 14 14 14 15 13 14 14 14 16 17 17 19 14 19 14 14 11 15 11 12 11 14 16 13 10 12 11 13 12 15 15 14 13 12 16 20 29 33 33 32 31 30 20
7 7 5 4 6 9 10 10 11 12 12 14 8 7 13 17 18 12 7 6 7 8 9 9 10 10 10 9 9 10 11 12 11 12 11 13 13 14 15 16 17 19 22 14 19 15 16 20 15 13 13 10 13 13 17 15 12 11 11 11 12 13 13 13 11 12 12 14 14 16 19 28 27 26
7 5 5 4 8 10 9 10 12 12 13 11 8 13 15 16 17 13 5 7 7 8 9 9 10 10 9 10 10 10 11 11 11 12 12 13 15 16 17 18 18 21 21 18 13 14 17 20 18 16 18 14 16 16 18 20 15 7 10 11 13 12 12 10 13 12 11 11 11 20 24 26 27 27
5 4 5 5 10 9 9 9 9 10 10 8 12 13 14 15 13 6 7 6 7 9 9 10 9 9 8 9 10 10 11 11 10 12 13 13 14 14 15 17 17 18 21 18 15 13 15 18 20 16 18 20 20 20 20 19 15 14 12 13 12 12 13 11 13 13 11 13 12 13 12 12 12 13
6 7 10 12 9 5 4 6 7 7 8 12 12 12 13 11 4 5 5 7 7 9 9 10 10 10 10 11 12 13 14 13 13 12 13 13 14 14 17 18 18 17 14 14 14 14 16 16 19 17 17 15 18 20 20 22 18 15 12 13 14 11 12 11 12 13 12 13 12 13 11 12 13 12
11 11 6 4 4 3 2 2 1 2 5 11 12 12 11 6 5 4 5 7 8 9 10 10 11 11 11 12 12 13 12 12 11 13 13 13 12 13 13 14 16 13 14 14 16 18 19 20 19 18 18 17 18 18 19 17 18 15 14 16 18 13 14 12 13 12 12 13 11 13 13 15 17 15
5 6 5 3 2 2 1 2 5 6 8 7 7 4 4 4 5 5 5 7 8 9 10 11 10 10 10 11 11 11 11 11 12 10 14 14 14 13 14 15 16 15 12 11 13 16 18 19 19 19 19 18 18 18 19 14 18 15 14 14 14 14 11 9 12 13 13 14 14 15 15 16 16 16
5 5 5 6 3 3 3 2 1 2 3 5 5 5 4 4 6 8 12 13 9 9 9 10 10 10 10 10 10 10 11 11 12 11 11 13 15 12 11 15 15 15 15 10 12 13 16 18 19 18 18 17 19 18 17 15 20 15 12 14 14 16 13 13 12 13 12 12 12 13 13 13 14 13
6 5 4 3 3 2 1 0 2 3 3 4 4 5 5 5 4 4 4 6 8 8 8 10 10 11 10 12 11 11 12 13 11 11 13 13 13 14 13 15 15 15 18 18 12 12 11 14 16 19 19 17 21 19 21 22 20 17 17 15 13 17 14 14 13 14 12 12 15 15 16 15 14 15
6 4 4 3 2 0 0 1 3 3 3 4 5 5 5 5 4 5 6 6 7 8 9 9 10 11 11 12 10 10 11 13 11 13 15 14 12 13 15 15 15 14 15 17 13 12 10 11 10 13 15 18 19 19 22 21 23 15 16 16 15 16 15 12 13 14 14 13 15 15 15 15 14 14
6 5 5 3 1 1 1 2 3 3 3 5 5 6 5 4 6 7 6 7 8 8 9 10 10 11 12 12 12 12 12 13 14 14 11 12 12 12 14 14 15 15 14 16 14 12 11 13 10 16 15 14 16 18 22 23 19 18 16 16 15 16 16 12 12 13 15 14 14 16 15 15 15 13
5 6 6 4 3 2 2 3 3 3 4 5 5 4 5 6 5 6 7 7 7 8 9 10 11 10 10 11 11 12 13 15 14 12 13 10 11 14 13 15 14 15 13 12 15 11 10 12 11 16 18 18 16 19 18 18 22 17 17 16 15 16 15 15 14 13 14 15 15 15 15 16 16 15
7 5 5 4 3 3 4 3 4 4 5 5 4 3 4 6 7 7 9 11 9 9 10 11 11 11 11 11 13 13 12 12 13 14 11 12 12 12 15 15 14 14 15 13 11 12 11 13 11 12 15 18 18 20 20 14 21 23 17 18 16 15 15 14 14 14 14 14 15 15 15 15 16 16
7 6 5 4 3 3 3 3 4 5 5 4 4 4 5 6 7 8 9 8 9 9 10 10 10 11 11 12 12 14 13 13 12 11 14 13 14 12 13 14 14 14 15 15 13 13 11 13 13 12 13 17 19 19 19 16 14 17 22 20 17 15 14 15 15 15 14 13 15 15 14 15 17 17
7 7 5 5 3 3 4 4 4 5 4 4 4 4 5 6 6 7 7 8 9 10 10 10 9 10 12 13 12 12 14 14 13 13 14 13 14 15 15 14 16 16 13 15 11 11 11 13 12 13 13 16 19 18 15 18 20 18 15 19 15 16 15 14 15 14 14 13 13 13 13 15 17 21
5 5 5 4 3 3 4 4 5 5 4 4 4 4 5 6 7 7 8 9 10 10 9 10 12 13 12 11 12 12 12 13 14 14 15 15 15 14 14 15 14 17 15 15 14 13 11 12 13 13 15 16 17 16 17 18 19 19 19 25 32 23 17 14 16 14 14 14 12 11 12 11 12 12
5 5 3 3 3 4 4 5 5 4 4 4 4 5 6 6 8 8 8 10 10 10 10 11 11 12 11 12 12 13 14 14 13 14 15 15 16 17 19 22 17 14 15 18 14 16 14 14 18 29 26 19 17 16 18 19 21 19 18 22 26 29 30 27 19 15 15 12 11 12 13 12 11 11
5 5 3 3 4 4 4 5 5 4 4 3 4 5 6 7 7 14 13 13 12 11 10 11 11 11 12 12 12 14 13 13 12 14 15 16 17 18 17 12 12 15 14 18 15 17 18 18 17 17 16 16 15 16 20 19 20 18 18 15 15 20 25 28 32 28 20 13 11 12 11 10 9 11
4 4 3 4 4 5 5 5 5 4 4 3 4 5 6 7 8 9 8 10 10 10 10 11 10 11 11 12 12 13 12 13 13 15 15 16 16 17 15 15 14 15 16 17 15 15 15 15 15 15 14 13 15 15 19 18 18 18 18 16 17 14 13 21 29 31 31 30 24 19 14 11 8 11
4 4 4 4 5 5 5 5 4 3 3 4 5 6 6 7 8 9 9 10 10 10 10 10 11 11 12 13 13 12 10 12 13 16 17 18 16 16 16 17 16 16 14 14 16 15 13 15 15 14 14 14 13 15 18 18 19 17 16 16 15 15 16 12 11 19 25 29 31 30 30 27 22 20
5 5 4 4 5 5 5 4 3 3 3 5 5 6 6 7 8 9 10 10 10 11 11 11 11 11 12 13 12 12 12 17 17 16 15 14 14 15 15 15 16 16 16 15 15 17 16 16 16 14 15 15 13 15 18 18 18 17 17 17 17 15 13 13 14 13 13 13 21 30 30 30 30 30
Wind_Direction
136 131 145 154 145 144 144 146 191 224 237 241 241 238 258 293 289 318 304 316 8 281 354 14 350 73 38 4 353 337 336 330 321 313 308 307 307 311 312 311 310 308 306 304 303 302 301 298 296 294 293 290 288 285 284 284 287 287 288 287 286 286 286 286 289 285 280 281 282 281 278 276 277 279
132 133 123 138 139 140 134 176 196 212 234 245 247 234 251 233 260 288 303 302 129 275 74 114 10 16 344 337 327 342 315 315 315 306 306 307 306 309 309 308 306 305 304 304 303 302 300 298 296 295 294 293 292 290 288 286 283 285 286 284 283 282 281 281 281 281 280 281 279 279 279 277 273 274
130 136 138 140 137 131 116 104 107 55 56 326 313 295 278 273 278 285 294 297 280 90 305 121 28 324 329 334 327 320 312 311 312 309 306 306 306 309 308 308 306 305 303 301 298 297 295 293 291 289 288 289 289 288 287 286 286 284 283 282 281 279 277 276 275 275 276 279 283 280 276 276 277 275
137 136 139 137 122 105 98 99 89 96 6 37 308 299 298 285 289 296 286 273 279 264 297 295 344 324 335 327 314 308 306 304 307 302 297 298 303 305 299 301 302 302 301 298 298 298 297 296 296 293 291 289 288 287 286 285 283 282 282 280 278 276 275 273 271 269 270 273 276 280 276 272 273 272
132 133 132 129 116 115 118 133 138 175 180 226 259 251 267 267 274 292 277 282 288 294 152 298 314 0 330 307 310 302 303 299 297 285 288 292 290 290 289 292 298 300 300 298 297 297 295 294 292 291 290 290 289 288 286 285 284 283 281 279 279 277 275 274 272 270 267 267 269 274 277 275 270 269
135 136 135 141 140 140 144 162 174 193 198 244 242 252 235 258 265 265 292 274 283 293 303 307 304 314 333 299 305 296 306 297 296 292 284 280 279 288 289 285 288 298 298 297 297 296 295 293 293 293 292 291 289 287 287 285 284 283 281 280 280 279 278 275 274 273 271 268 265 267 273 272 272 270
145 145 157 169 155 151 152 185 182 189 212 212 230 245 244 248 259 265 260 286 288 290 293 309 306 307 321 298 306 305 290 293 291 293 291 285 292 284 286 290 283 298 299 296 295 294 294 293 292 291 290 290 289 287 285 284 284 283 281 280 279 279 277 276 273 272 272 269 266 263 266 268 265 266
162 167 169 178 162 159 165 184 184 203 189 196 211 229 249 243 262 266 257 263 275 291 295 300 306 305 310 299 287 291 290 291 297 290 291 294 285 284 282 278 283 290 296 296 294 295 293 292 290 288 287 288 288 287 285 286 284 283 282 281 282 280 280 279 278 275 270 269 269 267 261 266 266 261
164 170 177 169 157 163 178 194 191 201 200 210 203 224 235 238 249 251 251 258 265 280 282 290 291 294 295 289 290 298 300 307 298 287 290 295 296 290 277 269 274 286 293 295 295 292 291 289 288 286 286 285 284 283 282 282 284 284 285 285 282 281 279 280 279 278 276 272 269 266 266 259 265 264
159 167 165 163 167 176 185 199 198 199 208 203 206 219 228 233 236 244 249 250 255 264 272 279 296 294 289 304 288 297 303 303 310 307 294 277 280 288 296 289 283 280 283 284 288 288 286 282 283 283 282 282 281 281 280 281 282 283 282 287 292 290 288 286 285 284 280 275 268 266 263 266 258 259
158 162 167 171 178 188 199 200 201 203 204 202 213 216 223 231 231 242 253 250 257 259 271 277 271 287 287 282 298 301 282 289 293 302 308 301 278 269 297 301 304 286 274 270 281 285 287 286 284 281 282 281 281 280 281 281 279 280 291 296 293 290 288 286 283 280 278 273 268 263 262 259 262 256
161 168 174 184 196 201 207 204 206 203 207 207 215 220 220 222 232 241 247 259 258 265 269 271 284 281 289 295 274 279 295 296 285 266 288 299 306 313 297 277 284 302 293 290 281 275 278 277 276 277 275 276 277 278 277 281 290 295 295 292 288 285 283 283 281 279 279 274 265 261 259 256 255 256
167 178 189 200 205 210 216 221 221 217 215 207 216 224 213 220 231 248 252 248 253 258 264 272 278 281 283 282 287 292 285 285 288 298 291 285 290 297 298 299 284 251 281 288 288 276 255 273 273 269 270 267 274 282 291 293 291 291 288 286 286 285 284 284 282 280 279 277 269 259 257 253 251 251
186 191 194 203 211 220 226 230 233 238 243 242 235 216 195 213 221 238 246 250 249 251 256 260 272 275 272 277 281 283 274 285 289 293 290 284 290 294 294 291 290 304 297 292 285 280 271 285 284 282 283 283 289 287 286 283 286 285 284 284 285 283 284 283 282 281 278 274 271 262 256 252 249 250
183 191 198 203 219 227 232 234 238 245 247 252 258 264 266 266 255 233 249 249 251 243 252 252 249 252 268 276 266 266 280 289 289 296 294 294 297 299 301 300 302 286 295 289 289 288 281 277 283 278 269 272 271 267 270 278 282 282 281 282 283 283 283 283 282 282 280 279 274 266 256 251 246 244
183 192 199 207 207 214 211 208 228 242 248 254 260 265 268 269 269 268 268 273 271 270 280 283 277 285 285 292 292 295 300 300 300 295 295 291 293 291 292 286 285 295 312 288 288 284 280 246 268 275 268 264 260 266 274 278 278 279 281 283 283 282 282 281 283 284 282 281 279 272 261 249 245 243
187 194 199 201 212 212 221 224 215 205 229 251 263 270 271 273 273 274 275 275 276 283 282 281 284 281 288 289 288 286 291 294 293 294 290 288 285 283 279 282 282 282 281 280 281 285 281 275 268 271 272 258 263 270 272 274 276 277 279 281 282 282 281 282 284 284 281 281 279 273 263 249 241 240
194 200 202 203 210 199 204 216 220 228 235 239 246 252 252 252 257 265 268 274 279 280 279 279 278 278 273 278 287 291 291 292 286 291 286 285 284 276 271 276 275 275 270 253 280 279 277 270 257 264 270 271 259 260 263 272 277 277 279 280 280 280 280 281 281 281 284 283 280 273 263 253 246 242
200 205 204 207 202 202 215 217 226 227 234 236 242 244 244 242 240 243 245 243 244 252 258 265 270 278 278 279 282 284 283 272 272 271 275 278 280 280 281 276 266 268 251 240 249 268 275 276 261 262 267 275 268 259 264 271 274 274 275 277 280 279 278 277 278 280 280 279 278 274 263 256 252 248
195 196 203 202 208 212 216 233 249 258 256 249 250 262 266 271 271 265 265 271 277 278 278 280 285 289 290 289 289 290 291 292 294 294 294 292 294 296 293 286 292 285 272 226 231 257 269 271 267 275 268 261 267 265 256 264 269 274 276 278 276 274 275 276 277 277 276 275 275 274 264 261 257 252
192 197 202 205 209 223 223 242 255 257 267 273 272 275 279 272 269 266 265 281 287 289 290 289 289 289 289 293 296 299 301 301 304 307 299 289 300 293 288 288 289 285 295 271 235 247 265 272 281 284 276 269 270 271 268 267 273 272 273 271 270 271 272 273 274 276 278 278 276 276 274 268 262 256
189 209 215 215 218 225 233 242 253 263 271 269 274 275 269 267 266 277 287 291 287 290 288 285 286 292 302 307 306 302 299 296 295 289 284 291 298 284 281 283 286 289 286 279 271 271 266 281 281 282 280 273 255 262 263 260 259 265 268 266 266 266 267 274 286 293 293 291 288 280 272 274 258 256
193 211 225 231 230 230 238 250 260 266 271 270 264 269 279 284 284 288 304 299 291 280 278 288 306 302 302 305 300 293 293 291 289 282 279 284 275 279 278 277 282 283 279 242 223 256 267 270 269 265 288 281 272 239 262 260 260 257 253 260 272 282 285 284 284 284 283 281 282 285 270 257 257 256
198 203 218 229 228 236 251 260 261 263 268 270 274 287 282 280 283 300 286 272 279 303 320 304 301 299 297 294 288 289 292 290 285 282 279 278 279 283 291 288 280 273 279 295 272 269 274 264 270 260 257 279 288 283 247 269 268 272 273 273 272 274 276 275 277 275 276 278 274 268 270 263 256 258
199 210 204 183 224 243 249 255 260 265 272 283 290 289 284 287 286 290 287 306 333 319 309 301 298 294 289 281 279 283 291 292 287 283 278 277 276 277 281 286 288 286 284 297 307 294 288 284 273 278 254 244 262 278 272 257 254 252 256 253 265 266 261 265 265 269 271 273 272 269 267 264 259 253
203 194 175 140 218 241 253 259 263 272 285 292 295 293 288 289 295 301 317 337 322 312 302 295 288 287 286 282 282 282 285 290 288 287 286 285 283 282 283 284 285 285 284 292 294 293 297 289 286 294 281 270 265 256 275 271 253 248 243 241 243 252 254 258 259 261 266 263 264 260 260 261 258 254
183 170 142 151 231 246 253 260 273 288 294 302 295 291 293 297 305 315 353 327 314 297 292 287 285 283 282 288 290 292 293 297 295 292 285 278 278 277 276 272 273 275 282 289 281 275 276 277 278 272 276 274 273 273 267 269 270 251 249 248 253 255 255 253 253 255 254 254 257 260 260 259 258 258
168 150 163 197 225 236 255 276 293 296 300 297 295 296 301 310 320 345 324 310 292 288 287 283 281 281 280 284 291 295 299 297 291 285 280 272 268 267 272 272 263 263 269 273 274 268 265 270 274 263 263 271 271 270 273 269 264 265 261 259 251 251 251 245 254 257 259 265 269 267 265 262 255 258
156 168 198 216 228 242 301 301 307 313 307 299 294 303 313 322 352 324 297 288 288 286 284 283 284 285 285 289 290 292 293 291 288 281 279 274 267 265 270 269 267 266 266 269 273 274 271 264 267 267 262 257 260 261 261 266 272 262 255 269 263 243 240 242 246 246 248 249 248 253 250 256 261 255
182 205 191 134 86 56 5 6 328 283 280 295 305 315 321 329 305 280 283 284 286 281 285 286 289 290 294 293 292 291 289 288 288 292 287 289 280 284 283 283 278 260 259 267 270 276 277 274 275 279 275 263 252 252 253 257 260 254 249 250 259 265 251 244 245 246 250 250 248 251 254 254 255 256
132 126 108 100 106 82 336 327 313 308 310 311 308 295 292 278 273 273 261 267 278 286 287 288 285 286 287 290 292 292 294 291 289 286 290 288 289 291 291 286 285 286 264 249 262 275 281 276 273 271 270 271 272 264 268 259 258 255 247 246 249 250 251 228 232 237 235 242 246 247 247 247 247 243
123 104 87 77 61 58 36 13 343 290 271 277 282 285 276 271 271 280 290 293 286 277 277 281 288 290 293 290 291 291 290 287 283 285 280 286 291 290 291 290 287 288 286 269 268 266 273 274 274 271 268 270 270 270 265 259 259 256 248 242 244 249 246 241 244 243 241 250 250 244 241 239 242 240
95 92 87 86 64 60 71 311 277 275 279 272 266 269 268 263 269 279 272 272 277 283 289 292 293 294 293 291 291 290 290 287 286 286 286 284 284 290 288 280 284 291 294 293 287 276 267 268 268 272 274 274 274 276 277 271 262 250 248 245 241 249 243 239 238 242 231 237 244 249 252 246 244 246
117 120 125 117 130 119 172 266 272 273 278 286 288 265 295 299 291 281 279 277 284 290 290 289 294 294 294 292 292 287 284 288 283 284 287 289 291 293 293 289 285 281 285 289 291 291 285 275 271 268 264 266 263 259 262 264 266 258 248 242 239 244 245 237 232 231 231 229 238 243 245 248 244 240
128 142 138 151 140 190 203 234 248 267 272 278 280 294 298 292 290 290 282 285 287 288 291 290 287 287 291 288 292 293 290 290 290 292 282 278 284 282 287 287 288 287 285 287 288 288 287 287 286 288 282 277 278 267 246 246 255 255 251 246 236 239 244 237 231 234 231 230 227 238 245 249 251 242
132 137 146 156 183 186 209 245 248 251 257 260 267 279 296 293 286 287 286 290 290 290 290 290 287 285 285 286 288 290 290 290 292 287 292 291 292 292 284 283 284 287 282 281 288 285 278 281 286 288 290 290 285 285 281 256 251 243 247 246 238 240 241 240 237 235 233 232 227 228 239 245 249 248
143 154 151 164 184 192 216 231 237 244 246 253 259 262 268 283 287 287 290 295 289 284 283 285 287 287 286 288 290 288 288 289 291 294 292 292 289 288 292 289 283 284 285 280 275 281 281 280 278 278 281 282 280 277 279 288 275 264 248 244 243 239 237 237 238 236 229 228 230 225 233 241 247 250
151 149 157 170 187 205 227 238 248 256 252 253 258 268 271 272 283 287 291 292 288 287 284 282 279 287 291 290 293 296 297 290 285 284 293 298 299 294 291 291 289 287 287 284 286 283 277 277 277 273 270 274 277 274 282 287 278 263 244 242 248 243 236 234 234 234 235 221 225 227 228 236 241 245
141 154 161 170 193 200 229 240 241 253 259 260 266 270 278 285 284 287 289 285 286 283 283 283 285 288 288 291 289 291 295 297 299 297 298 298 296 296 296 292 293 291 285 289 281 275 275 274 272 269 266 267 267 271 276 281 277 283 283 272 261 245 236 228 232 232 233 230 225 226 227 235 244 248
149 146 158 162 201 209 235 242 248 246 257 264 263 270 275 286 288 289 286 284 281 278 283 289 291 292 289 285 290 293 289 283 290 298 300 300 298 293 292 291 294 297 295 290 291 288 277 272 272 272 268 263 267 269 273 272 276 281 283 280 270 265 262 245 237 231 232 227 227 226 230 228 233 242
146 153 184 175 205 228 233 248 248 253 257 263 273 285 290 283 285 280 274 277 283 294 293 288 286 285 289 294 295 296 293 295 295 298 301 298 297 299 299 303 295 294 292 292 290 290 287 284 282 281 277 274 270 270 266 261 262 263 265 265 265 254 247 241 241 235 235 224 217 225 232 230 233 236
154 162 171 187 206 241 236 250 253 255 267 272 284 287 286 287 273 288 290 294 289 281 283 285 289 292 295 297 297 295 292 296 301 302 302 302 301 300 295 293 292 299 293 294 295 293 294 290 282 282 271 267 262 258 257 258 263 264 264 269 265 251 245 236 229 230 232 230 227 231 230 236 224 238
148 152 181 213 217 234 240 245 254 262 280 288 291 284 285 282 285 288 285 284 285 287 284 287 290 294 294 295 297 295 294 300 303 301 301 302 301 301 302 300 297 294 295 291 287 288 292 295 292 286 277 261 255 250 258 257 258 260 265 264 264 266 252 233 229 229 230 231 227 227 228 228 227 234
159 169 204 208 225 238 240 244 254 262 272 281 280 280 276 281 285 286 285 285 287 288 288 288 290 295 297 297 294 290 294 301 303 308 306 304 301 301 300 300 298 295 294 292 295 295 296 295 294 289 281 270 259 259 258 258 257 255 256 257 258 256 253 258 244 237 234 234 231 231 231 231 233 242
166 178 192 218 225 243 245 246 254 269 274 273 273 273 279 283 281 283 281 280 283 285 290 289 295 297 299 300 299 302 306 310 310 304 300 298 299 299 299 298 300 300 299 300 297 299 303 300 298 289 272 265 256 253 256 254 258 259 260 260 262 253 248 242 246 243 236 239 230 229 233 232 233 236